Location: Oberkirch
(48.5323°N, 8.0787°E)
Time: 16:03:58
(UTC+00:00)

SR - Pass Details

Date: 27 February 2026
Orbit: 572 x 848 km, 66.7° (Epoch: 8 March)

Event Time Altitude Azimuth Distance (km) Brightness Sun altitude
Exits shadow 04:51:53 - 319° (NW) 2,114 ? -14.3°
Reaches altitude 10° 04:52:38 10° 327° (NNW) 2,035 ? -14.1°
Maximum altitude 04:53:49 11° 343° (NNW) 1,998 ? -13.9°
Drops below altitude 10° 04:55:02 10° 358° (N) 2,078 ? -13.7°
Sets 04:59:27 0° 35° (NE) 3,079 ? -13.0°
